Location: Little Suamico
(44.7175°N, 88.0093°W)
Time: 08:15:17
(UTC+00:00)

X-37B - Pass Details

Date: 27 April 2021
Orbit: 386 x 389 km, 45.0° (Epoch: 08 May)

Event Time Altitude Azimuth Distance (km) Brightness Sun altitude
Exits shadow 08:44:51 44° 137° (SE) 549 1.2 -19.2°
Drops below altitude 10° 08:47:13 10° 115° (ESE) 1,411 3.7 -18.9°
Sets 08:49:18 0° 112° (ESE) 2,263 4.8 -18.6°
